Flag for U.S.A. Weather past 2 weeks in Spartanburg, South Carolina, U.S.A.

Now
75 °F

Passing clouds.


Feels Like: 78 °F
Forecast: 64 / 84 °F
Wind: 8 mph from North

Location: Spartanburg Memorial

Current Time: Jul 29, 2014 at 11:11:52 PM

Latest Report: Jul 29, 2014 at 10:55 PM


Visibility: 10 mi

Pressure: 30.01 "Hg

Humidity: 57%

Dew point: 59 °F

Location of SpartanburgLocation

Historic Weather in Spartanburg — Graph

°F

Spartanburg temperature yesterday

Maximum temperature yesterday: 91 °F (at 1:55 PM)
Minimum temperature yesterday: 72 °F (at 5:35 AM)
Average temperature yesterday: 82 °F

Past Weeks' High & Low Weather Summary

 TemperatureHumidityPressure
High95 °F (Jul 15, 2:55 PM)100% (Jul 15, 6:35 AM)30.20 "Hg (Jul 15, 6:35 AM)
Low63 °F (Jul 29, 6:55 AM)32% (Jul 28, 2:35 PM)29.78 "Hg (Jul 15, 3:35 PM)
Average77 °F78%30.01 "Hg
* Reported Jul 14 9:15 PM — Jul 29 9:55 PM, Spartanburg, Weather by CustomWeather, © 2014

Note: Actual official high and low records may vary slightly from our data, if they occured in-between our weather recording intervals... More about our weather records

Advertising

Spartanburg weather history for previous 24 hours

 ConditionsComfort  
Time TempWeatherWind HumidityBarometerVisibility
9:55 PM
Jul 29
77 °FClear.6 mph54%29.99 "Hg10 mi
9:35 PM77 °FClear.5 mph57%29.98 "Hg10 mi
9:15 PM73 °FSunny.No wind78%29.97 "Hg10 mi
8:55 PM75 °FSunny.No wind65%29.97 "Hg10 mi
8:35 PM77 °FSunny.No wind61%29.97 "Hg10 mi
7:55 PM79 °FScattered clouds.3 mph51%29.96 "Hg10 mi
7:35 PM79 °FSunny.3 mph54%29.95 "Hg10 mi
7:15 PM79 °FSunny.No wind54%29.96 "Hg10 mi
6:55 PM81 °FSunny.3 mph51%29.95 "Hg10 mi
6:35 PM81 °FScattered clouds.No wind45%29.95 "Hg10 mi
6:15 PM82 °FScattered clouds.No wind40%29.95 "Hg10 mi
5:55 PM82 °FScattered clouds.No wind40%29.95 "Hg10 mi
5:35 PM82 °FScattered clouds.No wind40%29.95 "Hg10 mi
5:15 PM82 °FScattered clouds.3 mph40%29.95 "Hg10 mi
4:55 PM84 °FScattered clouds.No wind35%29.95 "Hg10 mi
4:35 PM84 °FPleasantly warm.No wind37%29.95 "Hg10 mi
4:15 PM82 °FPleasantly warm.No wind40%29.95 "Hg10 mi
3:55 PM82 °FSunny.3 mph37%29.95 "Hg10 mi
3:35 PM82 °FSunny.5 mph40%29.96 "Hg10 mi
3:15 PM82 °FScattered clouds.8 mph40%29.96 "Hg10 mi
2:55 PM81 °FPartly sunny.No wind42%29.97 "Hg10 mi
2:35 PM81 °FBroken clouds.3 mph42%29.97 "Hg10 mi
1:55 PM79 °FPartly sunny.3 mph42%29.98 "Hg10 mi
1:35 PM81 °FPartly sunny.No wind42%29.98 "Hg10 mi
1:15 PM81 °FBroken clouds.No wind42%29.99 "Hg10 mi
12:55 PM81 °FSunny.3 mph42%29.99 "Hg10 mi
12:35 PM81 °FSunny.3 mph42%29.99 "Hg10 mi
12:15 PM79 °FScattered clouds.6 mph48%30.00 "Hg10 mi
11:55 AM81 °FPartly sunny.No wind45%30.00 "Hg10 mi
11:35 AM77 °FSunny.7 mph51%30.00 "Hg10 mi
11:15 AM79 °FSunny.No wind48%30.00 "Hg10 mi
10:55 AM77 °FSunny.6 mph51%30.00 "Hg10 mi
10:35 AM77 °FSunny.5 mph51%30.00 "Hg10 mi
10:15 AM77 °FSunny.7 mph51%30.00 "Hg10 mi
9:55 AM75 °FSunny.6 mph54%29.99 "Hg10 mi
9:35 AM73 °FSunny.6 mph65%29.99 "Hg10 mi
9:15 AM73 °FSunny.7 mph61%29.99 "Hg10 mi
8:55 AM72 °FSunny.5 mph69%29.99 "Hg10 mi
8:35 AM72 °FSunny.5 mph69%29.99 "Hg10 mi
8:15 AM70 °FSunny.5 mph73%29.99 "Hg10 mi
7:55 AM68 °FSunny.5 mph78%29.98 "Hg10 mi
7:35 AM66 °FSunny.3 mph83%29.97 "Hg10 mi
7:15 AM64 °FClear.3 mph88%29.97 "Hg10 mi
6:55 AM63 °FClear.No wind100%29.97 "Hg10 mi
6:35 AM64 °FClear.No wind88%29.96 "Hg10 mi
6:15 AM64 °FClear.No wind88%29.95 "Hg10 mi
5:55 AM68 °FClear.No wind73%29.94 "Hg10 mi
5:35 AM68 °FClear.5 mph73%29.93 "Hg10 mi
5:15 AM68 °FClear.5 mph78%29.93 "Hg10 mi
4:55 AM68 °FClear.5 mph78%29.93 "Hg10 mi
4:35 AM66 °FClear.3 mph83%29.92 "Hg10 mi
4:15 AM66 °FClear.3 mph83%29.92 "Hg10 mi
3:55 AM64 °FClear.No wind88%29.91 "Hg10 mi
3:35 AM68 °FClear.No wind78%29.91 "Hg10 mi
3:15 AM70 °FClear.No wind69%29.92 "Hg10 mi
2:55 AM70 °FClear.No wind69%29.92 "Hg10 mi
2:35 AM70 °FClear.3 mph69%29.93 "Hg10 mi
2:15 AM70 °FClear.3 mph69%29.93 "Hg10 mi
1:55 AM70 °FClear.3 mph73%29.93 "Hg10 mi
1:35 AM72 °FClear.5 mph69%29.94 "Hg10 mi
1:15 AM72 °FClear.5 mph65%29.94 "Hg10 mi
12:55 AM72 °FClear.5 mph65%29.94 "Hg10 mi
12:35 AM73 °FClear.6 mph61%29.93 "Hg10 mi
12:15 AM73 °FPassing clouds.7 mph61%29.93 "Hg10 mi
11:55 PM
Jul 28
73 °FPassing clouds.6 mph61%29.93 "Hg10 mi
11:35 PM77 °FClear.8 mph54%29.93 "Hg10 mi
Weather by CustomWeather, © 2014

See weather overviewHow to use our weather pages